| time (UTC) | temp C | wind direction | speed KPH | gust KPH | rain 1hr cm | rain 24hr cm | rain mn cm | humidity % | barometer mb |
| 20260507074602 | 7 | 126 | 3.2 | 12.9 | 0.00 | 0.13 | 0.13 | 76 | 1012.1 |
| 20260507073101 | 7 | 46 | 3.2 | 9.7 | 0.00 | 0.13 | 0.13 | 77 | 1012.1 |
| 20260507071603 | 6 | 67 | 3.2 | 14.5 | 0.00 | 0.13 | 0.13 | 79 | 1012.0 |
| 20260507070101 | 6 | 117 | 4.8 | 12.9 | 0.00 | 0.13 | 0.13 | 78 | 1011.9 |
| 20260507064600 | 6 | 90 | 3.2 | 9.7 | 0.00 | 0.13 | 0.13 | 79 | 1011.9 |
| 20260507063059 | 6 | 107 | 1.6 | 12.9 | 0.00 | 0.13 | 0.13 | 81 | 1012.0 |
| 20260507061559 | 6 | 92 | 3.2 | 6.4 | 0.00 | 0.13 | 0.13 | 81 | 1012.0 |
| 20260507060100 | 6 | 111 | 1.6 | 6.4 | 0.00 | 0.13 | 0.13 | 82 | 1011.9 |
| 20260507054607 | 5 | 106 | 1.6 | 9.7 | 0.00 | 0.13 | 0.13 | 83 | 1012.0 |
| 20260507053058 | 5 | 89 | 1.6 | 11.3 | 0.00 | 0.13 | 0.13 | 84 | 1012.0 |
| 20260507051559 | 5 | 104 | 3.2 | 6.4 | 0.00 | 0.13 | 0.13 | 84 | 1011.9 |
| 20260507050100 | 5 | 132 | 3.2 | 9.7 | 0.00 | 0.13 | 0.13 | 85 | 1011.9 |
| 20260507044618 | 5 | 115 | 1.6 | 9.7 | 0.00 | 0.13 | 0.13 | 85 | 1011.9 |
| 20260507043102 | 5 | 74 | 1.6 | 8.0 | 0.00 | 0.13 | 0.13 | 84 | 1011.9 |
| 20260507041607 | 5 | 65 | 1.6 | 9.7 | 0.00 | 0.13 | 0.13 | 85 | 1011.9 |
| 20260507040105 | 5 | 106 | 1.6 | 6.4 | 0.00 | 0.13 | 0.13 | 85 | 1011.9 |
| 20260507034600 | 5 | 96 | 1.6 | 11.3 | 0.03 | 0.13 | 0.13 | 86 | 1011.9 |
| 20260507033057 | 5 | 107 | 4.8 | 12.9 | 0.03 | 0.10 | 0.10 | 86 | 1011.9 |
| 20260507031600 | 5 | 103 | 6.4 | 12.9 | 0.03 | 0.10 | 0.10 | 86 | 1011.9 |
| 20260507030057 | 5 | 46 | 1.6 | 14.5 | 0.03 | 0.10 | 0.10 | 87 | 1012.0 |
| 20260507024556 | 5 | 105 | 1.6 | 9.7 | 0.00 | 0.08 | 0.08 | 86 | 1012.0 |
| 20260507023054 | 5 | 94 | 1.6 | 9.7 | 0.00 | 0.08 | 0.08 | 85 | 1011.8 |
| 20260507021555 | 5 | 62 | 3.2 | 9.7 | 0.00 | 0.08 | 0.08 | 85 | 1011.8 |
| 20260507020103 | 5 | 57 | 1.6 | 8.0 | 0.00 | 0.08 | 0.08 | 87 | 1011.9 |
| 20260507014607 | 5 | 82 | 3.2 | 9.7 | 0.00 | 0.08 | 0.08 | 87 | 1011.5 |
| 20260507013054 | 5 | 105 | 3.2 | 9.7 | 0.00 | 0.05 | 0.05 | 87 | 1011.6 |
| 20260507011604 | 5 | 80 | 3.2 | 9.7 | 0.00 | 0.05 | 0.05 | 87 | 1011.5 |
| 20260507010056 | 5 | 96 | 3.2 | 9.7 | 0.00 | 0.05 | 0.05 | 88 | 1011.5 |
| 20260507004559 | 5 | 105 | 4.8 | 11.3 | 0.00 | 0.05 | 0.05 | 88 | 1011.5 |
| 20260507003055 | 5 | 94 | 3.2 | 9.7 | 0.00 | 0.05 | 0.05 | 88 | 1011.6 |
| 20260507001614 | 5 | 104 | 1.6 | 9.7 | 0.05 | 0.05 | 0.05 | 88 | 1011.6 |
| 20260507000100 | 5 | 0 | 3.2 | 6.4 | 0.05 | 0.05 | 0.05 | 88 | 1011.7 |
| 20260506234602 | 5 | 113 | 1.6 | 6.4 | 0.03 | 0.03 | 0.03 | 88 | 1011.7 |
| 20260506233056 | 5 | 100 | 1.6 | 4.8 | 0.03 | 0.03 | 0.03 | 87 | 1011.7 |
| 20260506231557 | 5 | 91 | 1.6 | 4.8 | 0.00 | 0.00 | 0.00 | 86 | 1011.7 |
| 20260506230058 | 5 | 84 | 0.0 | 4.8 | 0.00 | 0.00 | 0.00 | 86 | 1011.8 |
| 20260506224557 | 5 | 94 | 1.6 | 3.2 | 0.00 | 0.00 | 0.00 | 85 | 1012.0 |
| 20260506223108 | 5 | 104 | 1.6 | 6.4 | 0.00 | 0.00 | 0.00 | 85 | 1012.0 |
| 20260506221558 | 5 | 108 | 1.6 | 4.8 | 0.00 | 0.00 | 0.00 | 85 | 1012.0 |
| 20260506220108 | 5 | 109 | 3.2 | 6.4 | 0.00 | 0.00 | 0.00 | 85 | 1011.9 |
| 20260506214557 | 5 | 97 | 1.6 | 4.8 | 0.00 | 0.00 | 0.00 | 85 | 1012.1 |
| 20260506213101 | 5 | 90 | 0.0 | 3.2 | 0.00 | 0.00 | 0.00 | 85 | 1012.4 |
| 20260506211557 | 5 | 47 | 0.0 | 3.2 | 0.00 | 0.00 | 0.00 | 84 | 1012.6 |
| 20260506210115 | 5 | 110 | 1.6 | 4.8 | 0.00 | 0.00 | 0.00 | 81 | 1012.5 |
| 20260506204556 | 5 | 115 | 0.0 | 3.2 | 0.00 | 0.00 | 0.00 | 81 | 1012.8 |
| 20260506203141 | 5 | 128 | 0.0 | 9.7 | 0.00 | 0.00 | 0.00 | 79 | 1012.8 |
| 20260506201557 | 5 | 171 | 1.6 | 8.0 | 0.00 | 0.00 | 0.00 | 77 | 1012.4 |
| 20260506200058 | 6 | 0 | 0.0 | 6.4 | 0.00 | 0.00 | 0.00 | 76 | 1012.3 |
| 20260506194556 | 6 | 162 | 3.2 | 12.9 | 0.00 | 0.00 | 0.00 | 76 | 1012.4 |
| 20260506193056 | 6 | 200 | 1.6 | 11.3 | 0.00 | 0.00 | 0.00 | 75 | 1012.4 |
| 20260506191604 | 6 | 130 | 3.2 | 9.7 | 0.00 | 0.00 | 0.00 | 74 | 1012.6 |
| 20260506190058 | 6 | 135 | 3.2 | 11.3 | 0.00 | 0.00 | 0.00 | 72 | 1012.5 |
| 20260506184559 | 6 | 91 | 6.4 | 16.1 | 0.00 | 0.00 | 0.00 | 70 | 1012.1 |
| 20260506183103 | 7 | 152 | 4.8 | 14.5 | 0.00 | 0.00 | 0.00 | 67 | 1012.0 |
| 20260506181601 | 8 | 150 | 3.2 | 12.9 | 0.00 | 0.00 | 0.00 | 63 | 1012.1 |
| 20260506180058 | 8 | 150 | 6.4 | 19.3 | 0.00 | 0.00 | 0.00 | 59 | 1012.0 |
| 20260506174608 | 10 | 193 | 1.6 | 17.7 | 0.00 | 0.00 | 0.00 | 55 | 1012.0 |
| 20260506173059 | 10 | 94 | 3.2 | 11.3 | 0.00 | 0.00 | 0.00 | 50 | 1011.9 |
| 20260506171606 | 11 | 132 | 4.8 | 12.9 | 0.00 | 0.00 | 0.00 | 46 | 1011.8 |
| 20260506170104 | 11 | 100 | 8.0 | 17.7 | 0.00 | 0.00 | 0.00 | 45 | 1011.5 |
| 20260506164600 | 11 | 127 | 3.2 | 12.9 | 0.00 | 0.00 | 0.00 | 44 | 1011.5 |
| 20260506163131 | 11 | 0 | 0.0 | 4.8 | 0.00 | 0.00 | 0.00 | 41 | 1011.4 |
| 20260506161557 | 11 | 94 | 0.0 | 6.4 | 0.00 | 0.00 | 0.00 | 41 | 1011.4 |
| 20260506154556 | 12 | 58 | 3.2 | 6.4 | 0.00 | 0.00 | 0.00 | 39 | 1011.0 |
| 20260506153134 | 12 | 101 | 3.2 | 9.7 | 0.00 | 0.00 | 0.00 | 35 | 1011.0 |
| 20260506151605 | 12 | 114 | 3.2 | 12.9 | 0.00 | 0.00 | 0.00 | 35 | 1010.9 |
| 20260506150059 | 12 | 101 | 4.8 | 14.5 | 0.00 | 0.00 | 0.00 | 32 | 1011.4 |
| 20260506144604 | 12 | 104 | 4.8 | 12.9 | 0.00 | 0.00 | 0.00 | 31 | 1011.6 |
| 20260506143057 | 12 | 113 | 3.2 | 12.9 | 0.00 | 0.00 | 0.00 | 38 | 1012.1 |
| 20260506141601 | 12 | 47 | 4.8 | 11.3 | 0.00 | 0.00 | 0.00 | 36 | 1012.3 |
| 20260506134610 | 13 | 100 | 4.8 | 12.9 | 0.00 | 0.00 | 0.00 | 36 | 1012.5 |
| 20260506133109 | 13 | 47 | 6.4 | 16.1 | 0.00 | 0.00 | 0.00 | 38 | 1012.6 |
| 20260506131608 | 13 | 35 | 4.8 | 14.5 | 0.00 | 0.00 | 0.00 | 40 | 1012.6 |
| 20260506130110 | 13 | 126 | 6.4 | 14.5 | 0.00 | 0.00 | 0.00 | 38 | 1012.6 |
| 20260506124610 | 13 | 104 | 0.0 | 6.4 | 0.00 | 0.00 | 0.00 | 39 | 1012.8 |
| 20260506123114 | 13 | 68 | 4.8 | 12.9 | 0.00 | 0.00 | 0.00 | 40 | 1012.7 |
| 20260506121611 | 13 | 36 | 4.8 | 19.3 | 0.00 | 0.00 | 0.00 | 42 | 1012.5 |
| 20260506120058 | 13 | 5 | 3.2 | 12.9 | 0.00 | 0.00 | 0.00 | 44 | 1012.6 |
| 20260506114557 | 13 | 114 | 4.8 | 14.5 | 0.00 | 0.00 | 0.00 | 41 | 1012.5 |
| 20260506113054 | 13 | 205 | 0.0 | 12.9 | 0.00 | 0.00 | 0.00 | 39 | 1012.8 |
| 20260506111555 | 13 | 53 | 4.8 | 12.9 | 0.00 | 0.00 | 0.00 | 43 | 1012.8 |
| 20260506110104 | 13 | 29 | 4.8 | 12.9 | 0.00 | 0.00 | 0.00 | 38 | 1012.8 |
| 20260506104606 | 12 | 341 | 1.6 | 9.7 | 0.00 | 0.00 | 0.00 | 44 | 1012.8 |
| 20260506103103 | 11 | 70 | 1.6 | 11.3 | 0.00 | 0.00 | 0.00 | 45 | 1013.0 |
| 20260506101618 | 11 | 355 | 3.2 | 14.5 | 0.00 | 0.00 | 0.00 | 45 | 1013.2 |
| 20260506100058 | 11 | 123 | 4.8 | 12.9 | 0.00 | 0.00 | 0.00 | 42 | 1013.2 |
| 20260506094559 | 11 | 304 | 3.2 | 8.0 | 0.00 | 0.00 | 0.00 | 44 | 1013.1 |
| 20260506093100 | 11 | 142 | 1.6 | 14.5 | 0.00 | 0.00 | 0.00 | 44 | 1013.3 |
| 20260506091556 | 10 | 311 | 3.2 | 9.7 | 0.00 | 0.00 | 0.00 | 45 | 1013.3 |
| 20260506090111 | 11 | 325 | 4.8 | 12.9 | 0.00 | 0.00 | 0.00 | 48 | 1013.3 |
| 20260506084632 | 11 | 329 | 1.6 | 9.7 | 0.00 | 0.00 | 0.00 | 48 | 1013.3 |
| 20260506083058 | 10 | 77 | 3.2 | 8.0 | 0.00 | 0.00 | 0.00 | 49 | 1013.4 |
| 20260506081611 | 10 | 271 | 4.8 | 12.9 | 0.00 | 0.00 | 0.00 | 51 | 1013.4 |